| time (UTC) | temp C | wind direction | speed KPH | gust KPH | rain 1hr cm | rain 24hr cm | rain mn cm | humidity % | barometer mb |
| 20260507170100 | 13 | 232 | 9.7 | 19.3 | 0.00 | 0.00 | 0.00 | 23 | 1010.2 |
| 20260507164630 | 13 | 271 | 6.4 | 22.5 | 0.00 | 0.00 | 0.00 | 23 | 1010.3 |
| 20260507163059 | 13 | 271 | 6.4 | 14.5 | 0.00 | 0.00 | 0.00 | 24 | 1010.4 |
| 20260507161604 | 13 | 136 | 3.2 | 14.5 | 0.00 | 0.00 | 0.00 | 22 | 1010.4 |
| 20260507160058 | 12 | 0 | 6.4 | 16.1 | 0.00 | 0.00 | 0.00 | 22 | 1010.5 |
| 20260507154601 | 12 | 160 | 8.0 | 14.5 | 0.00 | 0.00 | 0.00 | 23 | 1010.6 |
| 20260507153059 | 11 | 215 | 9.7 | 16.1 | 0.00 | 0.00 | 0.00 | 24 | 1010.6 |
| 20260507151557 | 11 | 208 | 9.7 | 16.1 | 0.00 | 0.00 | 0.00 | 26 | 1010.7 |
| 20260507150059 | 10 | 191 | 6.4 | 14.5 | 0.00 | 0.00 | 0.00 | 27 | 1010.7 |
| 20260507144601 | 9 | 204 | 4.8 | 17.7 | 0.00 | 0.00 | 0.00 | 28 | 1010.4 |
| 20260507143119 | 9 | 172 | 3.2 | 8.0 | 0.00 | 0.00 | 0.00 | 31 | 1010.4 |
| 20260507141604 | 8 | 0 | 0.0 | 1.6 | 0.00 | 0.00 | 0.00 | 33 | 1010.5 |
| 20260507140057 | 8 | 0 | 0.0 | 0.0 | 0.00 | 0.00 | 0.00 | 32 | 1010.6 |
| 20260507134558 | 7 | 0 | 0.0 | 1.6 | 0.00 | 0.00 | 0.00 | 33 | 1010.5 |
| 20260507133100 | 6 | 0 | 0.0 | 1.6 | 0.00 | 0.00 | 0.00 | 35 | 1010.4 |
| 20260507131605 | 5 | 0 | 0.0 | 0.0 | 0.00 | 0.00 | 0.00 | 40 | 1010.3 |
| 20260507130057 | 4 | 0 | 0.0 | 0.0 | 0.00 | 0.00 | 0.00 | 40 | 1010.2 |
| 20260507124604 | 3 | 0 | 0.0 | 0.0 | 0.00 | 0.00 | 0.00 | 43 | 1010.1 |
| 20260507123100 | 2 | 0 | 0.0 | 1.6 | 0.00 | 0.00 | 0.00 | 42 | 1010.1 |
| 20260507121557 | 2 | 0 | 0.0 | 1.6 | 0.00 | 0.00 | 0.00 | 41 | 1010.1 |
| 20260507120059 | 2 | 0 | 0.0 | 0.0 | 0.00 | 0.00 | 0.00 | 41 | 1009.9 |
| 20260507114610 | 2 | 0 | 0.0 | 1.6 | 0.00 | 0.00 | 0.00 | 42 | 1009.9 |
| 20260507113130 | 2 | 0 | 0.0 | 0.0 | 0.00 | 0.00 | 0.00 | 41 | 1009.9 |
| 20260507111600 | 2 | 220 | 1.6 | 3.2 | 0.00 | 0.00 | 0.00 | 42 | 1009.9 |
| 20260507104600 | 2 | 244 | 0.0 | 3.2 | 0.00 | 0.00 | 0.00 | 40 | 1009.9 |
| 20260507103101 | 3 | 0 | 0.0 | 1.6 | 0.00 | 0.00 | 0.00 | 39 | 1009.8 |
| 20260507101600 | 3 | 0 | 0.0 | 0.0 | 0.00 | 0.00 | 0.00 | 39 | 1009.9 |
| 20260507100121 | 2 | 0 | 0.0 | 0.0 | 0.00 | 0.00 | 0.00 | 40 | 1009.9 |
| 20260507094610 | 2 | 0 | 0.0 | 0.0 | 0.00 | 0.00 | 0.00 | 40 | 1009.9 |
| 20260507093100 | 2 | 0 | 0.0 | 0.0 | 0.00 | 0.00 | 0.00 | 39 | 1009.6 |
| 20260507091635 | 2 | 0 | 0.0 | 0.0 | 0.00 | 0.00 | 0.00 | 39 | 1009.7 |
| 20260507084611 | 3 | 0 | 0.0 | 1.6 | 0.00 | 0.00 | 0.00 | 37 | 1009.8 |
| 20260507083100 | 3 | 0 | 0.0 | 0.0 | 0.00 | 0.00 | 0.00 | 39 | 1009.8 |
| 20260507081602 | 3 | 0 | 0.0 | 1.6 | 0.00 | 0.00 | 0.00 | 37 | 1009.8 |
| 20260507080105 | 3 | 0 | 4.8 | 11.3 | 0.00 | 0.00 | 0.00 | 38 | 1009.9 |
| 20260507074603 | 3 | 233 | 8.0 | 9.7 | 0.00 | 0.00 | 0.00 | 37 | 1009.9 |
| 20260507073104 | 3 | 244 | 9.7 | 12.9 | 0.00 | 0.00 | 0.00 | 37 | 1010.0 |
| 20260507071601 | 3 | 238 | 6.4 | 6.4 | 0.00 | 0.00 | 0.00 | 36 | 1009.9 |
| 20260507070107 | 3 | 244 | 4.8 | 8.0 | 0.00 | 0.00 | 0.00 | 35 | 1009.8 |
| 20260507064601 | 4 | 196 | 8.0 | 11.3 | 0.00 | 0.00 | 0.00 | 34 | 1009.7 |
| 20260507063102 | 3 | 232 | 6.4 | 8.0 | 0.00 | 0.00 | 0.00 | 36 | 1009.7 |
| 20260507061601 | 3 | 235 | 4.8 | 6.4 | 0.00 | 0.00 | 0.00 | 36 | 1009.6 |
| 20260507054601 | 4 | 233 | 6.4 | 6.4 | 0.00 | 0.00 | 0.00 | 35 | 1009.7 |
| 20260507053101 | 3 | 234 | 3.2 | 4.8 | 0.00 | 0.00 | 0.00 | 38 | 1009.8 |
| 20260507051603 | 2 | 232 | 3.2 | 3.2 | 0.00 | 0.00 | 0.00 | 40 | 1010.0 |
| 20260507050100 | 3 | 0 | 0.0 | 6.4 | 0.00 | 0.00 | 0.00 | 37 | 1009.9 |
| 20260507044615 | 5 | 37 | 1.6 | 3.2 | 0.00 | 0.00 | 0.00 | 33 | 1010.0 |
| 20260507043127 | 5 | 30 | 0.0 | 1.6 | 0.00 | 0.00 | 0.00 | 33 | 1010.2 |
| 20260507041604 | 5 | 0 | 0.0 | 0.0 | 0.00 | 0.00 | 0.00 | 32 | 1010.3 |
| 20260507040100 | 5 | 0 | 0.0 | 0.0 | 0.00 | 0.00 | 0.00 | 32 | 1010.4 |
| 20260507034601 | 6 | 0 | 0.0 | 4.8 | 0.00 | 0.00 | 0.00 | 31 | 1010.4 |
| 20260507033101 | 6 | 27 | 3.2 | 6.4 | 0.00 | 0.00 | 0.00 | 31 | 1010.4 |
| 20260507031559 | 6 | 333 | 6.4 | 12.9 | 0.00 | 0.00 | 0.00 | 31 | 1010.5 |
| 20260507030101 | 6 | 344 | 6.4 | 11.3 | 0.00 | 0.00 | 0.00 | 32 | 1010.6 |
| 20260507024600 | 6 | 26 | 8.0 | 11.3 | 0.00 | 0.00 | 0.00 | 31 | 1010.6 |
| 20260507023110 | 6 | 340 | 6.4 | 11.3 | 0.00 | 0.00 | 0.00 | 31 | 1010.6 |
| 20260507021600 | 8 | 24 | 6.4 | 9.7 | 0.00 | 0.00 | 0.00 | 28 | 1010.6 |
| 20260507020105 | 8 | 24 | 9.7 | 14.5 | 0.00 | 0.00 | 0.00 | 27 | 1010.6 |
| 20260507014602 | 9 | 345 | 11.3 | 19.3 | 0.00 | 0.00 | 0.00 | 27 | 1010.7 |
| 20260507013100 | 10 | 334 | 12.9 | 19.3 | 0.00 | 0.00 | 0.00 | 25 | 1010.9 |
| 20260507011601 | 11 | 9 | 19.3 | 24.1 | 0.00 | 0.00 | 0.00 | 24 | 1010.6 |
| 20260507010058 | 11 | 40 | 19.3 | 25.7 | 0.00 | 0.00 | 0.00 | 23 | 1010.8 |
| 20260507004607 | 11 | 335 | 22.5 | 30.6 | 0.00 | 0.00 | 0.00 | 23 | 1010.9 |
| 20260507003116 | 11 | 329 | 20.9 | 32.2 | 0.00 | 0.00 | 0.00 | 22 | 1010.9 |
| 20260507001616 | 11 | 306 | 12.9 | 30.6 | 0.00 | 0.00 | 0.00 | 23 | 1011.0 |
| 20260506234603 | 11 | 281 | 19.3 | 35.4 | 0.00 | 0.00 | 0.00 | 23 | 1011.2 |
| 20260506233102 | 11 | 318 | 19.3 | 33.8 | 0.00 | 0.00 | 0.00 | 22 | 1011.2 |
| 20260506231608 | 11 | 306 | 12.9 | 27.4 | 0.00 | 0.00 | 0.00 | 22 | 1011.3 |
| 20260506230113 | 11 | 281 | 17.7 | 35.4 | 0.00 | 0.00 | 0.00 | 22 | 1011.3 |
| 20260506224604 | 12 | 305 | 14.5 | 29.0 | 0.00 | 0.00 | 0.00 | 22 | 1011.5 |
| 20260506223105 | 12 | 297 | 19.3 | 29.0 | 0.00 | 0.00 | 0.00 | 22 | 1011.4 |
| 20260506221614 | 11 | 330 | 17.7 | 30.6 | 0.00 | 0.00 | 0.00 | 23 | 1011.7 |
| 20260506220101 | 11 | 313 | 22.5 | 45.1 | 0.00 | 0.00 | 0.00 | 22 | 1011.8 |
| 20260506214559 | 11 | 309 | 20.9 | 37.0 | 0.00 | 0.00 | 0.00 | 23 | 1012.1 |
| 20260506213106 | 11 | 267 | 14.5 | 22.5 | 0.00 | 0.00 | 0.00 | 22 | 1012.3 |
| 20260506211600 | 11 | 265 | 16.1 | 35.4 | 0.00 | 0.00 | 0.00 | 22 | 1012.7 |
| 20260506204602 | 10 | 342 | 8.0 | 25.7 | 0.00 | 0.00 | 0.00 | 23 | 1013.0 |
| 20260506203121 | 10 | 298 | 16.1 | 29.0 | 0.00 | 0.00 | 0.00 | 23 | 1013.3 |
| 20260506201601 | 10 | 271 | 17.7 | 32.2 | 0.00 | 0.00 | 0.00 | 23 | 1013.4 |
| 20260506200059 | 10 | 277 | 4.8 | 27.4 | 0.00 | 0.00 | 0.00 | 24 | 1013.5 |
| 20260506194605 | 10 | 298 | 17.7 | 29.0 | 0.00 | 0.00 | 0.00 | 23 | 1013.9 |
| 20260506193106 | 9 | 319 | 16.1 | 35.4 | 0.00 | 0.00 | 0.00 | 24 | 1014.0 |
| 20260506191556 | 10 | 265 | 20.9 | 27.4 | 0.00 | 0.00 | 0.00 | 24 | 1014.2 |
| 20260506184559 | 8 | 273 | 9.7 | 24.1 | 0.00 | 0.00 | 0.00 | 24 | 1014.9 |
| 20260506183105 | 8 | 352 | 19.3 | 32.2 | 0.00 | 0.00 | 0.00 | 24 | 1015.1 |
| 20260506181604 | 8 | 311 | 16.1 | 40.2 | 0.00 | 0.00 | 0.00 | 24 | 1015.4 |
| 20260506180058 | 8 | 315 | 8.0 | 25.7 | 0.00 | 0.00 | 0.00 | 27 | 1015.8 |
| 20260506174559 | 7 | 241 | 3.2 | 22.5 | 0.00 | 0.00 | 0.00 | 26 | 1016.0 |
| 20260506173109 | 7 | 290 | 14.5 | 27.4 | 0.00 | 0.00 | 0.00 | 26 | 1016.2 |
| 20260506171558 | 7 | 338 | 14.5 | 29.0 | 0.00 | 0.00 | 0.00 | 26 | 1016.5 |